C/2019 L3 ( ATLAS )

Japanese version
Home page
Updated on September 4, 2024

---------------------------------------------------------------------

* Profile

Discovery Date June 10, 2019
Magnitude 18.1 mag
Discoverer Asteroid Terrestrial-Impact Last Alert System (ATLAS) search program

* Pictures

* Orbital Elements

Epoch 2024 Mar. 31.0 TT = JDT 2460400.5
T 2022 Jan.  9.82889 TT                                 Rudenko
q   3.5551321            (2000.0)            P               Q
z  -0.0007113      Peri.  171.66136     -0.26041013     -0.66634523
 +/-0.0000002      Node   290.75011     +0.83712974     +0.20472100
e   1.0025289      Incl.   48.34468     +0.48104092     -0.71698908
>From 6393 observations 2019 June 10-2024 Feb. 24, mean residual 0".7.

* Finding Charts

* Magnitudes Graph

        m1 = -2.5 + 5 log d + 17.0 log r(t - 100)  [ ,0]  (             - 2022 Jan.  9)
        m1 =  0.0 + 5 log d + 12.5 log r(t - 120)  [0, ]  (2022 Jan.  9 -             )

---------------------------------------------------------------------

The orbital elements are published on M.P.E.C. 2024-D126.
The charts are made with StellaNavigator Ver.10 (AstroArts).
The magnitudes graphs are made with Comet for Windows.

---------------------------------------------------------------------

Copyright(C) Seiichi Yoshida (comet@aerith.net). All rights reserved.